This is the latest recevied weather packets stored in our database for station/object W9LRT-WX. If no packets are shown the sender has not sent any weather packets the latest 10 day(s).
| Time | Temp. | Humidity | Pressure | Rain* | Wind** | Luminosity | Snow |
|---|---|---|---|---|---|---|---|
| 1777924253 | 24.44° C | 48% | 999.4 hPa | 0 mm | - | 276 W/m² | - |
| 1777923354 | 24.44° C | 48% | 999.6 hPa | 0 mm | - | 234 W/m² | - |
| 1777922452 | 24.44° C | 51% | 999.6 hPa | 0 mm | - | 993 W/m² | - |
| 1777921553 | 23.89° C | 53% | 999.9 hPa | 0 mm | - | 967 W/m² | - |
| 1777920650 | 23.89° C | 53% | 1000.1 hPa | 0 mm | - | 227 W/m² | - |
| 1777919750 | 23.33° C | 56% | 1000.4 hPa | 0 mm | - | 330 W/m² | - |
| 1777918848 | 23.33° C | 55% | 1000.7 hPa | 0 mm | - | 905 W/m² | - |
| 1777917950 | 22.78° C | 59% | 1000.9 hPa | 0 mm | - | 935 W/m² | - |
| 1777917048 | 22.22° C | 58% | 1001.2 hPa | 0 mm | - | 895 W/m² | - |
| 1777916148 | 22.22° C | 58% | 1001.3 hPa | 0 mm | - | 877 W/m² | - |
| 1777915248 | 22.22° C | 56% | 1001.4 hPa | 0 mm | - | 875 W/m² | - |
| 1777914345 | 21.67° C | 57% | 1001.5 hPa | 0 mm | - | 868 W/m² | - |
| 1777913444 | 21.67° C | 58% | 1001.8 hPa | 0 mm | - | 861 W/m² | - |
| 1777912543 | 21.11° C | 58% | 1002.1 hPa | 0 mm | - | 846 W/m² | - |
| 1777911642 | 21.11° C | 57% | 1002.4 hPa | 0 mm | - | 830 W/m² | - |
| 1777910742 | 20.56° C | 55% | 1002.5 hPa | 0 mm | - | 812 W/m² | - |
| 1777909843 | 20° C | 57% | 1002.6 hPa | 0 mm | - | 793 W/m² | - |
| 1777908941 | 20° C | 59% | 1002.7 hPa | 0 mm | - | 766 W/m² | - |
| 1777908037 | 19.44° C | 60% | 1002.8 hPa | 0 mm | - | 744 W/m² | - |
| 1777907137 | 18.89° C | 60% | 1003.2 hPa | 0 mm | - | 710 W/m² | - |
| 1777906236 | 18.89° C | 61% | 1003.3 hPa | 0 mm | - | 679 W/m² | - |
| 1777905336 | 17.78° C | 63% | 1003.5 hPa | 0 mm | - | 642 W/m² | - |
| 1777904434 | 17.22° C | 65% | 1003.7 hPa | 0 mm | - | 603 W/m² | - |
| 1777903535 | 16.67° C | 68% | 1003.7 hPa | 0 mm | - | 564 W/m² | - |
| 1777902633 | 16.11° C | 71% | 1003.8 hPa | 0 mm | - | 522 W/m² | - |
* Rain latest hour (hover to see other rain measurements)
** Current wind speed in m/s (hover to see current wind gust speed)